Tracking 19572 objects as of 23-Feb-2019
HD Live streaming from Space Station
objects crossing your sky now

THORAD DELTA 1 DEB

Track THORAD DELTA 1 DEB now!
10-day predictions


NORAD ID: 8790
Int'l Code: 1974-089DS
Perigee: 1,403.3 km
Apogee: 1,467.2 km
Inclination: 101.6 °
Period: 114.4 minutes
Semi major axis: 7806 km
RCS: 0.0356 m2 (small)
Launch date: November 15, 1974
Source: United States (US)
Launch site: AIR FORCE WESTERN TEST RANGE (AFWTR)

Note: This is SATELLITE DEBRIS
aabbcc
Your satellite tracking list
Your tracking list is empty




NASA's NSSDC Master Catalog

Two Line Element Set (TLE):
1  8790U 74089DS  19053.83997766 -.00000008 +00000-0 +21802-3 0  9990
2  8790 101.5877 023.4698 0040913 257.0239 134.8498 12.58753026032474
Source of the keplerian elements: AFSPC